This demonstration page uses our WeatherBlox Daily Observations layout. Learn more.

Left ArrowRight Arrow

41.86663, -103.66717

Hourly Observations for October 19, 2021

Temp ( °F °C ) Dew Point ( °F °C ) Humidity (%) Winds ( mph kmh ) Pressure ( in mb ) Visibility ( mi km ) Precip ( " mm )
2:53 am 02:53 Clear 41 5 35 1.7 79 79 undefined N/A 29.69 1005 10 16 N/A
3:53 am 03:53 Clear 48 8.9 36 2.2 63 63 N 9 15 29.64 1004 10 16 N/A
4:53 am 04:53 Clear 43 6.1 36 2.2 76 76 S 7 11 29.65 1004 10 16 N/A
5:53 am 05:53 Clear 41 5 34 1.1 76 76 N N/A 29.72 1006 10 16 N/A
6:53 am 06:53 Partly Cloudy 43 6.1 36 2.2 76 76 VRB 5 7 29.75 1008 10 16 N/A
7:53 am 07:53 Mostly Sunny 48 8.9 38 3.3 68 68 NNE 6 9 29.76 1008 10 16 N/A
8:53 am 08:53 Sunny 53 11.7 38 3.3 57 57 NNE 12 19 29.79 1009 10 16 N/A
9:53 am 09:53 Mostly Sunny 54 12.2 39 3.9 57 57 NNE 22 35 29.82 1010 10 16 N/A
10:53 am 10:53 Mostly Sunny 53 11.7 38 3.3 57 57 N 16 26 29.83 1010 10 16 N/A
11:53 am 11:53 Mostly Cloudy 54 12.2 38 3.3 55 55 N 20 31 29.83 1010 10 16 N/A
12:53 pm 12:53 Cloudy 53 11.7 38 3.3 57 57 N 18 30 29.84 1010 10 16 N/A
1:53 pm 13:53 Cloudy 48 8.9 38 3.3 68 68 NNE 15 24 29.91 1013 10 16 N/A
2:31 pm 14:31 Cloudy 45 7.2 38 3.3 77 77 N 15 24 29.94 1014 9 14 N/A
2:53 pm 14:53 Cloudy with Haze 44 6.7 38 3.3 79 79 N 14 22 29.96 1015 6 10 N/A
3:15 pm 15:15 Cloudy with Light Rain 43 6.1 39 3.9 86 86 N 14 22 30.00 1016 3 5 0.00 0.00
3:20 pm 15:20 Cloudy with Light Rain 43 6.1 39 3.9 86 86 N 9 15 30.01 1016 3 4 0.00 0.00
3:27 pm 15:27 Cloudy with Light Rain 43 6.1 39 3.9 86 86 N 9 15 30.01 1016 3 4 0.00 0.00
3:41 pm 15:41 Cloudy with Light Rain 43 6.1 40 4.4 89 89 N 9 15 30.02 1016 2 3 0.00 0.00
3:44 pm 15:44 Cloudy with Rain 43 6.1 39 3.9 86 86 N 9 15 30.02 1016 2 3 0.01 0.25
3:53 pm 15:53 Cloudy with Rain 43 6.1 40 4.4 89 89 N 12 19 29.99 1016 2 3 0.03 0.76
4:01 pm 16:01 Cloudy with Rain 43 6.1 39 3.9 86 86 N 10 17 30.03 1017 2 3 0.02 0.51
4:14 pm 16:14 Cloudy with Rain 43 6.1 39 3.9 86 86 NNW 8 13 30.05 1017 3 4 0.04 1.02
4:23 pm 16:23 Cloudy with Rain 42 5.6 39 3.9 89 89 N 7 11 30.05 1018 3 5 0.06 1.52
4:53 pm 16:53 Partly Cloudy with Light Rain 42 5.6 39 3.9 89 89 WNW 7 11 30.05 1018 3 5 0.11 2.79
5:17 pm 17:17 Cloudy with Rain 42 5.6 39 3.9 89 89 WNW 9 15 30.07 1018 3 5 0.04 1.02
5:32 pm 17:32 Cloudy with Rain 41 5 38 3.3 89 89 NW 8 13 30.08 1019 3 5 0.10 2.54
5:53 pm 17:53 Cloudy with Rain 41 5 36 2.2 82 82 NNW 10 17 30.08 1019 4 6 0.15 3.81
6:53 pm 18:53 Cloudy with Light Rain 40 4.4 36 2.2 86 86 N 8 13 30.08 1019 10 16 0.05 1.27
7:34 pm 19:34 Cloudy 38 3.3 35 1.7 89 89 NW 8 13 30.14 1021 10 16 0.00 0.00
7:42 pm 19:42 Cloudy 38 3.3 35 1.7 89 89 NW 7 11 30.15 1021 10 16 0.00 0.00
7:53 pm 19:53 Cloudy 38 3.3 35 1.7 89 89 NW 7 11 30.10 1019 10 16 0.00 0.00
8:46 pm 20:46 Cloudy with Light Rain 37 3 34 1 87 87 NW 12 19 30.16 1021 10 16 N/A
8:53 pm 20:53 Cloudy with Light Rain 38 3.3 34 1.1 86 86 NW 8 13 30.09 1019 10 16 0.00 0.00
9:33 pm 21:33 Cloudy with Light Rain 37 2.8 34 1.1 89 89 W 12 19 30.18 1022 10 16 0.00 0.00
9:49 pm 21:49 Cloudy with Light Rain 37 3 34 1 87 87 W 9 15 30.18 1022 10 16 0.00 0.00
9:53 pm 21:53 Cloudy with Light Rain 37 2.8 34 1.1 89 89 WNW 9 15 30.11 1020 10 16 0.00 0.00
10:06 pm 22:06 Cloudy with Light Rain 37 2.8 34 1.1 89 89 WNW 9 15 30.19 1022 10 16 0.00 0.00
10:20 pm 22:20 Cloudy with Light Rain 37 2.8 34 1.1 89 89 WNW 9 15 30.20 1023 10 16 0.01 0.25
10:53 pm 22:53 Cloudy with Light Rain 37 2.8 34 1.1 89 89 WNW 10 17 30.13 1020 9 14 0.02 0.51
10:59 pm 22:59 Cloudy with Light Rain 37 2.8 34 1.1 89 89 NW 9 15 30.21 1023 10 16 0.00 0.00
11:53 pm 23:53 Cloudy with Light Snow 36 2 N/A N/A NW 9 15 30.14 1021 8 13 0.02 0.51

Powered by AerisWeather